Home > Time Zones > World Clock > Weather > Japan > Naha > Past weeks

Flag for Japan Weather past 2 weeks in Naha, Okinawa, Japan

Now
75 °F

Passing clouds.


Feels Like: 78 °F
Forecast: 67 / 79 °F
Wind: 12 mph from Northeast

Location: Naha Airport

Current Time: Oct 23, 2014 at 8:32:00 PM

Latest Report: Oct 23, 2014 at 8:00 PM


Visibility: N/A

Pressure: 30.01 "Hg

Humidity: 57%

Dew point: 59 °F

Location of NahaLocation

Historic Weather in Naha — Graph

°F

Naha temperature yesterday

Maximum temperature yesterday: 82 °F (at 10:00 AM)
Minimum temperature yesterday: 73 °F (at 9:30 PM)
Average temperature yesterday: 77 °F

Past Weeks' High & Low Weather Summary

 TemperatureHumidityPressure
High86 °F (Oct 9, 12:30 PM)94% (Oct 11, 8:00 AM)30.12 "Hg (Oct 11, 8:00 AM)
Low72 °F (Oct 11, 8:00 AM)42% (Oct 17, 11:00 AM)28.20 "Hg (Oct 12, 12:00 AM)
Average77 °F70%29.80 "Hg
* Reported Oct 8 7:00 PM — Oct 23 7:30 PM, Naha, Weather by CustomWeather, © 2014

Note: Actual official high and low records may vary slightly from our data, if they occured in-between our weather recording intervals... More about our weather records

Advertising

Naha weather history for previous 24 hours

 ConditionsComfort  
Time TempWeatherWind HumidityBarometerVisibility
7:30 PM
Oct 23
75 °FPassing clouds.13 mph57%29.98 "HgN/A
7:00 PM75 °FPassing clouds.14 mph61%29.98 "HgN/A
6:30 PM75 °FPassing clouds.14 mph61%29.98 "HgN/A
6:00 PM75 °FPassing clouds.13 mph61%29.98 "HgN/A
5:30 PM75 °FPassing clouds.16 mph61%29.95 "HgN/A
5:00 PM77 °FPassing clouds.16 mph57%29.95 "HgN/A
4:30 PM79 °FPassing clouds.16 mph54%29.95 "HgN/A
4:00 PM79 °FPassing clouds.18 mph54%29.95 "HgN/A
3:30 PM79 °FPassing clouds.17 mph51%29.95 "HgN/A
3:00 PM81 °FPassing clouds.20 mph51%29.95 "HgN/A
2:30 PM81 °FPassing clouds.21 mph51%29.95 "HgN/A
2:00 PM81 °FPassing clouds.16 mph54%29.95 "HgN/A
1:30 PM81 °FPassing clouds.17 mph51%29.95 "HgN/A
1:00 PM81 °FPassing clouds.16 mph51%29.98 "HgN/A
12:30 PM81 °FPassing clouds.16 mph51%29.98 "HgN/A
12:00 PM81 °FPassing clouds.17 mph51%29.98 "HgN/A
11:30 AM81 °FPassing clouds.17 mph51%29.98 "HgN/A
11:00 AM81 °FPassing clouds.16 mph51%30.01 "HgN/A
10:30 AM81 °FPassing clouds.15 mph51%30.01 "HgN/A
10:00 AM79 °FPassing clouds.15 mph54%30.01 "HgN/A
9:30 AM79 °FPassing clouds.12 mph58%30.01 "HgN/A
9:00 AM79 °FPassing clouds.14 mph58%30.01 "HgN/A
8:30 AM77 °FPassing clouds.14 mph61%30.01 "HgN/A
8:00 AM77 °FPassing clouds.10 mph65%29.98 "HgN/A
7:30 AM75 °FPassing clouds.10 mph65%29.98 "HgN/A
7:00 AM75 °FPassing clouds.12 mph69%29.98 "HgN/A
6:30 AM75 °FPassing clouds.12 mph69%29.95 "HgN/A
6:00 AM75 °FPassing clouds.13 mph69%29.95 "HgN/A
5:30 AM75 °FPassing clouds.13 mph74%29.95 "HgN/A
5:00 AM75 °FPassing clouds.15 mph74%29.92 "HgN/A
4:30 AM75 °FSprinkles. Passing clouds.9 mph74%29.92 "HgN/A
4:00 AM73 °FPassing clouds.13 mph74%29.92 "HgN/A
3:30 AM75 °FPassing clouds.14 mph69%29.92 "HgN/A
3:00 AM73 °FPassing clouds.14 mph74%29.95 "HgN/A
2:30 AM73 °FPassing clouds.14 mph69%29.95 "HgN/A
2:00 AM73 °FPassing clouds.16 mph74%29.95 "HgN/A
1:30 AM73 °FPassing clouds.14 mph74%29.95 "HgN/A
1:00 AM73 °FPassing clouds.16 mph69%29.95 "HgN/A
12:30 AM73 °FPassing clouds.16 mph69%29.98 "HgN/A
12:00 AM73 °FPassing clouds.17 mph69%29.98 "HgN/A
11:30 PM
Oct 22
73 °FPassing clouds.17 mph65%29.98 "HgN/A
11:00 PM73 °FPassing clouds.18 mph65%30.01 "HgN/A
10:30 PM73 °FPassing clouds.17 mph69%30.01 "HgN/A
10:00 PM73 °FPassing clouds.17 mph69%30.01 "HgN/A
9:30 PM73 °FPassing clouds.21 mph69%30.01 "HgN/A
9:00 PM75 °FPassing clouds.18 mph65%30.01 "HgN/A
8:30 PM75 °FPassing clouds.20 mph65%29.98 "HgN/A
8:00 PM75 °FPassing clouds.20 mph65%29.98 "HgN/A
Weather by CustomWeather, © 2014

See weather overviewHow to use our weather pages